Starlink 32488

operational
NORAD ID: 62125 Int'l Des: 2024-222 Owner: SPXS Country: US Constellation: starlink
LEOCIRCULAR

Starlink 32488について

説明を読み込み中...

リアルタイム位置

3D地球を読み込み中...

次回通過

高度履歴

Altitude vs Time

uPlot chart will show altitude changes over time

軌道要素

1 62125U 24222M 25305.58909696 .00029289 00000-0 10687-2 0 9999
2 62125 42.9976 139.9733 0001479 275.3714 84.6969 15.27608010 53055
Epoch: Nov 1, 2025 • Age: 10 hours

現在のステータス

高度 493.1 km
速度 7.62 km/s
衛星直下点 -37.53°S, 38.2°W
打ち上げ日 Nov 27, 2024
運用期間 0.9 years
タイプ internet

技術仕様

分類 Payload
質量 730.00 kg
乾燥質量 700.00 kg
総質量 730.00 kg
長さ 0.30 m
直径 4.10 m
スパン 29.00 m
形状 Box + pan
製造者 SPXS
バスタイプ Starlink V2M
フェーズステータス In Orbit
所有者/国 SPXS/US

大規模コンステレーション

Loading constellations...